This is the latest recevied weather packets stored in our database for station/object KF5JED-13. If no packets are shown the sender has not sent any weather packets the latest 1 day(s).
| Time | Temp. | Humidity | Pressure | Rain* | Wind** | Luminosity | Snow |
|---|---|---|---|---|---|---|---|
| 1778059560 | 6.67° C | 81% | 1013.9 hPa | 0 mm | - | 0 W/m² | - |
| 1778058652 | 6.67° C | 81% | 1013.5 hPa | 0 mm | - | 0 W/m² | - |
| 1778057136 | 6.67° C | 81% | 1013.5 hPa | 0 mm | - | 0 W/m² | - |
| 1778056832 | 6.67° C | 81% | 1013.7 hPa | 0 mm | - | 0 W/m² | - |
| 1778055619 | 6.67° C | 81% | 1013.3 hPa | 0 mm | - | 0 W/m² | - |
| 1778055015 | 6.67° C | 80% | 1013.3 hPa | 0 mm | - | 0 W/m² | - |
| 1778054712 | 6.67° C | 80% | 1013.2 hPa | 0 mm | - | 0 W/m² | - |
| 1778051685 | 6.11° C | 82% | 1013.3 hPa | 0 mm | - | 0 W/m² | - |
| 1778051079 | 5.56° C | 82% | 1013.6 hPa | 0 mm | - | 0 W/m² | - |
| 1778050776 | 5.56° C | 81% | 1013.2 hPa | 0 mm | - | 0 W/m² | - |
| 1778050474 | 5.56° C | 81% | 1013.3 hPa | 0 mm | - | 0 W/m² | - |
| 1778049563 | 6.11° C | 80% | 1013.5 hPa | 0 mm | - | 0 W/m² | - |
| 1778048958 | 6.67° C | 79% | 1013.2 hPa | 0 mm | - | 0 W/m² | - |
| 1778048049 | 6.67° C | 78% | 1012.9 hPa | 0 mm | - | 0 W/m² | - |
| 1778047747 | 6.67° C | 77% | 1012.9 hPa | 0 mm | - | 0 W/m² | - |
| 1778046535 | 7.22° C | 76% | 1012.2 hPa | 0 mm | - | 0 W/m² | - |
| 1778046232 | 7.22° C | 76% | 1012.5 hPa | 0 mm | - | 0 W/m² | - |
| 1778045928 | 7.22° C | 75% | 1012.1 hPa | 0 mm | - | 0 W/m² | - |
| 1778045325 | 7.22° C | 74% | 1012 hPa | 0 mm | - | 0 W/m² | - |
| 1778044114 | 7.78° C | 73% | 1011.7 hPa | 0 mm | - | 0 W/m² | - |
| 1778043811 | 7.78° C | 72% | 1011.5 hPa | 0 mm | - | 0 W/m² | - |
| 1778043205 | 7.78° C | 71% | 1012 hPa | 0 mm | - | 0 W/m² | - |
| 1778042902 | 7.78° C | 71% | 1011.8 hPa | 0 mm | - | 0 W/m² | - |
| 1778042600 | 8.33° C | 70% | 1011.7 hPa | 0 mm | - | 0 W/m² | - |
| 1778041994 | 8.33° C | 68% | 1011.7 hPa | 0 mm | - | 0 W/m² | - |
* Rain latest hour (hover to see other rain measurements)
** Current wind speed in m/s (hover to see current wind gust speed)